Home   Weather   Tehran   Past weeks
Flag for Iran

Past Weather in Tehran, Iran — Yesterday and Last 2 Weeks

Now
97 °F

Passing clouds.


Feels Like: 92 °F
Forecast: 97 / 78 °F
Wind: 5 mph from North

Location: Tehran-Mehrabad

Current Time: Jun 26, 2019 at 8:53:36 pm

Latest Report: Jun 26, 2019 at 8:30 pm


Visibility: N/A

Pressure: 29.86 "Hg (26.21 "Hg at 1179m altitude)

Humidity: 11%

Dew Point: 34 °F

Location of TehranLocation

Past Weather in Tehran — Graph

°F

Tehran Temperature Yesterday

Maximum temperature yesterday: 102 °F (at 3:00 pm)
Minimum temperature yesterday: 82 °F (at 6:00 am)
Average temperature yesterday: 94 °F

High & Low Weather Summary for the Past Weeks

 TemperatureHumidityPressure
High102 °F (Jun 25, 3:00 pm)44% (Jun 22, 5:30 am)30.04 "Hg (Jun 22, 5:30 am)
Low72 °F (Jun 22, 5:30 am)6% (Jun 17, 3:30 pm)29.68 "Hg (Jun 21, 6:30 pm)
Average88 °F17%29.88 "Hg
* Reported Jun 11 7:30 pm — Jun 26 8:00 pm, Tehran. Weather by CustomWeather, © 2019

Note: Actual official high and low records may vary slightly from our data, if they occured in-between our weather recording intervals... More about our weather records

Advertising

Tehran Weather History for the Previous 24 Hours

Scroll right to see more
 ConditionsComfort  
Time TempWeatherWind HumidityBarometerVisibility
8:00 pm
Wed, Jun 26
99 °FPassing clouds.No wind9%29.86 "HgN/A
7:30 pm100 °FPassing clouds.7 mph8%29.86 "HgN/A
7:00 pm100 °FPassing clouds.5 mph8%29.86 "HgN/A
6:30 pm100 °FPassing clouds.No wind8%29.86 "HgN/A
6:00 pm100 °FScattered clouds.5 mph8%29.86 "HgN/A
5:30 pm100 °FScattered clouds.5 mph8%29.89 "HgN/A
5:00 pm100 °FScattered clouds.12 mph8%29.89 "HgN/A
4:30 pm100 °FScattered clouds.9 mph9%29.89 "HgN/A
4:00 pm100 °FScattered clouds.9 mph9%29.92 "HgN/A
3:30 pm100 °FScattered clouds.9 mph9%29.92 "HgN/A
3:00 pm99 °FScattered clouds.7 mph9%29.92 "HgN/A
2:30 pm99 °FScattered clouds.7 mph10%29.95 "HgN/A
2:00 pm97 °FScattered clouds.5 mph10%29.95 "HgN/A
1:30 pm99 °FScattered clouds.12 mph9%29.98 "HgN/A
1:00 pm99 °FSunny.12 mph9%29.98 "Hg10 mi
12:30 pm95 °FSunny.No wind11%29.98 "Hg10 mi
12:00 pm95 °FClear.5 mph11%29.98 "HgN/A
11:30 am93 °FClear.7 mph12%29.98 "Hg6 mi
11:00 am93 °FClear.7 mph11%30.01 "Hg6 mi
10:30 am91 °FClear.12 mph13%29.98 "Hg6 mi
10:00 am91 °FClear.9 mph15%29.98 "Hg6 mi
9:30 am90 °FClear.9 mph18%29.98 "Hg6 mi
9:00 am88 °FClear.12 mph22%29.98 "Hg6 mi
8:30 am88 °FClear.9 mph21%29.98 "Hg5 mi
8:00 am88 °FPassing clouds.9 mph21%29.98 "HgN/A
7:30 am84 °FPassing clouds.9 mph22%29.98 "HgN/A
7:00 am84 °FPassing clouds.7 mph16%29.98 "HgN/A
6:30 am82 °FPassing clouds.5 mph17%29.98 "HgN/A
6:00 am82 °FPassing clouds.5 mph19%29.95 "HgN/A
5:30 am82 °FPassing clouds.5 mph20%29.95 "HgN/A
4:30 am84 °FPassing clouds.No wind19%29.95 "HgN/A
4:00 am86 °FPassing clouds.No wind17%29.95 "HgN/A
3:30 am86 °FPassing clouds.No wind17%29.95 "HgN/A
3:00 am90 °FPassing clouds.No wind11%29.95 "HgN/A
2:30 am90 °FPassing clouds.No wind11%29.95 "HgN/A
2:00 am91 °FPassing clouds.5 mph11%29.95 "HgN/A
1:30 am93 °FPassing clouds.5 mph11%29.95 "HgN/A
1:00 am91 °FPassing clouds.No wind12%29.95 "HgN/A
12:30 am95 °FPassing clouds.No wind10%29.95 "HgN/A
12:00 am95 °FPassing clouds.7 mph10%29.92 "HgN/A
11:30 pm
Tue, Jun 25
97 °FPassing clouds.9 mph9%29.92 "HgN/A
11:00 pm97 °FPassing clouds.7 mph9%29.92 "HgN/A
10:30 pm95 °FPassing clouds.5 mph12%29.92 "HgN/A
10:00 pm97 °FPassing clouds.5 mph10%29.92 "HgN/A
9:30 pm97 °FPassing clouds.5 mph10%29.92 "HgN/A
9:00 pm99 °FPassing clouds.5 mph9%29.89 "HgN/A
8:30 pm99 °FPassing clouds.5 mph9%29.89 "HgN/A
8:00 pm100 °FPassing clouds.7 mph8%29.89 "HgN/A
Weather by CustomWeather, © 2019

See weather overview